Regional Weather Roundup
Issued by NWS

Home | Current Version | Previous Version | Graphics & Text | Print | Product List | Glossary Off
Versions: 1 2 3 4 5 6 7 8 9 10 11 12 13 14 15 16 17 18 19 20 21 22 23 24 25 26 27 28 29 30 31 32 33 34 35 36 37 38 39 40 41 42 43 44 45 46 47 48 49 50

000
ASUS43 KFSD 231010
RWRSD

WEATHER ROUNDUP FOR SOUTH DAKOTA
NATIONAL WEATHER SERVICE SIOUX FALLS SD
500 AM CDT MON APR 23 2018

NOTE: "FAIR" INDICATES FEW OR NO CLOUDS BELOW 12,000 FEET WITH NO
SIGNIFICANT WEATHER AND/OR OBSTRUCTIONS TO VISIBILITY.


SDZ001>005-009-010-012>017-231100-
NORTHWEST AND NORTH CENTRAL SOUTH DAKOTA

CITY           SKY/WX    TMP DP  RH WIND       PRES   REMARKS
BUFFALO          N/A     44  34  67 NE12      30.03S
FAITH            N/A     41  37  86 SE12      30.09R
MOBRIDGE       FAIR      40  33  76 SE8       30.10S
$$

SDZ012>016-024>037-041>051-057-063-072>074-231100-
SOUTHWEST AND SOUTH CENTRAL SOUTH DAKOTA

CITY           SKY/WX    TMP DP  RH WIND       PRES   REMARKS
RAPID CTY ARPT FAIR      40  36  86 CALM      30.06F
PIERRE         FAIR      37  34  89 E6        30.13R
CUSTER         FAIR      35  30  82 NW5       30.11S
ELLSWORTH AFB  CLEAR     41  36  81 S8        30.07S
PHILIP         FAIR      41  36  82 S7        30.10S
PINE RIDGE     FAIR      45  36  70 SW12      30.10S
SPEARFISH      FAIR      41  34  75 W9        30.08R
WINNER         FAIR      42  34  73 S8        30.15S
$$

SDZ004>011-016>023-039-040-231100-
NORTHEAST SOUTH DAKOTA

CITY           SKY/WX    TMP DP  RH WIND       PRES   REMARKS
ABERDEEN       FAIR      35  33  92 S5        30.18R
WATERTOWN      CLEAR     38  34  85 S6        30.18F
BROOKINGS      CLEAR     36  34  92 CALM      30.20S
SISSETON         N/A     34  33  96 SE5       30.18S WCI  30
$$

SDZ017-020-022-023-036>040-048>070-231100-
SOUTHEAST SOUTH DAKOTA

CITY           SKY/WX    TMP DP  RH WIND       PRES   REMARKS
SIOUX FALLS    CLEAR     35  31  85 NE3       30.20S
HURON          FAIR      40  37  89 SE6       30.18S
CHAMBERLAIN    FAIR      40  40  99 E5        30.16S
MITCHELL       FAIR      41  39  93 SE6       30.19S
YANKTON        CLEAR     39  38  96 CALM      30.19F
$$

ABBREVIATIONS USED IN REMARKS
   TC - TEMPERATURE IN CELSIUS
  WCI - WIND CHILL INDEX
   HX - HEAT INDEX
  VSB - VISIBILITY





USA.gov is the U.S. government's official web portal to all federal, state and local government web resources and services.